EW8588 Weather Reports


time (UTC)temp
C
wind
direction
speed
KPH
gust
KPH
rain 1hr
cm
rain 24hr
cm
rain mn
cm
humidity
%
barometer
mb
20260506193010 28 137 3.2 9.7 0.00 0.00 0.00 83 1007.6
20260506191509 28 139 1.6 6.4 0.00 0.00 0.00 81 1007.9
20260506190008 28 183 1.6 8.0 0.00 0.00 0.00 82 1008.0
20260506184519 27 147 0.0 6.4 0.00 0.00 0.00 84 1008.2
20260506183007 27 164 1.6 6.4 0.00 0.00 0.00 84 1008.3
20260506181506 27 106 1.6 6.4 0.00 0.00 0.00 83 1008.6
20260506180007 27 129 0.0 9.7 0.00 0.00 0.00 83 1008.6
20260506174506 27 158 1.6 6.4 0.00 0.00 0.00 82 1008.6
20260506173005 27 177 1.6 6.4 0.00 0.00 0.00 83 1008.8
20260506171504 28 148 3.2 8.0 0.00 0.00 0.00 82 1008.9
20260506170000 27 204 1.6 6.4 0.00 0.00 0.00 85 1009.2
20260506164558 26 150 0.0 4.8 0.00 0.00 0.00 87 1009.1
20260506163056 26 148 0.0 6.4 0.00 0.00 0.00 89 1008.9
20260506161601 26 134 0.0 4.8 0.00 0.00 0.00 90 1008.9
20260506160051 26 140 0.0 4.8 0.00 0.00 0.00 90 1008.9
20260506154549 26 155 1.6 6.4 0.00 0.00 0.00 90 1008.7
20260506153047 26 112 1.6 4.8 0.00 0.00 0.00 91 1008.4
20260506151546 25 147 0.0 4.8 0.00 0.00 0.00 91 1008.3
20260506150055 25 122 1.6 9.7 0.00 0.00 0.00 91 1008.1
20260506144559 25 150 0.0 3.2 0.00 0.00 0.00 92 1007.9
20260506143050 25 167 0.0 6.4 0.00 0.00 0.00 91 1007.9
20260506141542 25 115 0.0 3.2 0.00 0.00 0.00 92 1008.1
20260506140057 25 153 0.0 3.2 0.00 0.00 0.00 92 1008.2
20260506134540 25 186 0.0 6.4 0.00 0.00 0.00 93 1008.0
20260506133038 25 134 0.0 3.2 0.00 0.00 0.00 93 1008.2
20260506131543 25 165 0.0 1.6 0.00 0.00 0.00 93 1008.3
20260506130050 24 163 0.0 3.2 0.00 0.00 0.00 93 1008.2
20260506124536 24 136 0.0 6.4 0.00 0.00 0.00 94 1008.1
20260506123040 24 136 0.0 3.2 0.00 0.00 0.00 94 1008.0
20260506121534 24 184 0.0 4.8 0.00 0.00 0.00 94 1007.8
20260506120034 24 153 0.0 1.6 0.00 0.00 0.00 94 1007.6
20260506114533 23 160 0.0 3.2 0.00 0.00 0.00 94 1007.4
20260506113036 23 140 1.6 6.4 0.00 0.00 0.00 94 1007.2
20260506111533 23 164 0.0 4.8 0.00 0.00 0.00 94 1007.0
20260506110040 23 128 0.0 3.2 0.00 0.00 0.00 94 1006.9
20260506104532 23 146 0.0 3.2 0.00 0.00 0.00 94 1007.1
20260506103030 23 176 0.0 1.6 0.00 0.00 0.00 94 1007.1
20260506101533 23 139 0.0 3.2 0.00 0.00 0.00 94 1006.9
20260506100029 23 105 0.0 1.6 0.00 0.00 0.00 93 1006.8
20260506094528 23 148 0.0 1.6 0.00 0.00 0.00 94 1006.7
20260506093032 23 159 0.0 1.6 0.00 0.00 0.00 93 1006.9
20260506091526 24 120 0.0 1.6 0.00 0.00 0.00 93 1006.9
20260506090024 24 157 0.0 6.4 0.00 0.00 0.00 92 1006.8
20260506084523 24 168 0.0 4.8 0.00 0.00 0.00 92 1007.0
20260506083028 24 185 0.0 4.8 0.00 0.00 0.00 92 1007.1
20260506081520 24 78 0.0 4.8 0.00 0.00 0.00 92 1007.2
20260506073014 24 201 0.0 4.8 0.00 0.00 0.00 91 1007.8
20260506071512 24 143 0.0 3.2 0.00 0.00 0.00 91 1007.9
20260506061510 24 136 1.6 11.3 0.00 0.00 0.00 91 1007.8
20260506044506 25 133 0.0 8.0 0.00 0.00 0.00 90 1007.9
20260506043005 25 160 1.6 8.0 0.00 0.00 0.00 90 1007.8
20260506041502 25 148 1.6 11.3 0.00 0.00 0.00 90 1007.8
20260506040002 25 181 1.6 9.7 0.00 0.00 0.00 90 1007.7
20260506034503 25 169 3.2 8.0 0.00 0.00 0.00 90 1007.7
20260506033100 25 136 1.6 9.7 0.00 0.00 0.00 90 1007.6
20260506031610 25 137 1.6 6.4 0.00 0.00 0.00 90 1007.5
20260506030059 24 172 0.0 4.8 0.00 0.00 0.00 90 1007.5
20260506024602 24 183 0.0 6.4 0.00 0.00 0.00 90 1007.3
20260506023105 24 79 0.0 6.4 0.00 0.00 0.00 90 1006.9
20260506021557 24 83 1.6 6.4 0.00 0.00 0.00 90 1006.7
20260506020058 24 140 1.6 8.0 0.00 0.00 0.00 90 1006.5
20260506014557 25 139 1.6 8.0 0.00 0.00 0.00 89 1006.4
20260506013108 25 127 1.6 6.4 0.00 0.00 0.00 88 1006.3
20260506011559 25 108 0.0 8.0 0.00 0.00 0.00 87 1006.1
20260506010118 25 144 3.2 12.9 0.00 0.00 0.00 87 1005.9
20260506004554 25 145 1.6 8.0 0.00 0.00 0.00 86 1005.7
20260506003101 25 153 1.6 6.4 0.00 0.00 0.00 86 1005.7
20260506001601 25 120 1.6 9.7 0.00 0.00 0.00 85 1005.6
20260506000054 25 105 0.0 11.3 0.00 0.00 0.00 85 1005.7
20260505234553 26 97 3.2 9.7 0.00 0.00 0.00 84 1005.6
20260505233104 26 122 1.6 9.7 0.00 0.00 0.00 84 1005.7
20260505231551 26 150 3.2 14.5 0.00 0.00 0.00 83 1005.7
20260505230055 26 108 3.2 14.5 0.00 0.00 0.00 82 1005.8
20260505224551 26 258 1.6 9.7 0.00 0.00 0.00 82 1005.6
20260505223049 26 232 1.6 12.9 0.00 0.00 0.00 82 1005.7
20260505221549 26 127 1.6 14.5 0.00 0.00 0.00 83 1005.8
20260505220046 26 91 1.6 14.5 0.00 0.00 0.00 84 1005.9
20260505214550 26 122 3.2 12.9 0.00 0.00 0.00 84 1006.2
20260505213047 26 232 3.2 11.3 0.00 0.00 0.00 83 1006.2
20260505211547 26 126 4.8 11.3 0.00 0.00 0.00 83 1006.3
20260505210044 26 101 3.2 11.3 0.00 0.00 0.00 83 1006.4
20260505204540 26 185 3.2 11.3 0.00 0.00 0.00 82 1006.7
20260505203039 26 103 3.2 14.5 0.00 0.00 0.00 83 1007.0
20260505201548 26 131 3.2 16.1 0.00 0.00 0.00 83 1007.1
20260505200038 26 226 3.2 11.3 0.00 0.00 0.00 83 1007.3
20260505194538 26 135 4.8 11.3 0.00 0.00 0.00 83 1007.4